When you browse on this site, cookies collect data to enhance your experience and personalize the content and advertising you see.
Visit our Privacy Policy to learn more. By continuing to use the site, you agree to this use of cookies and data.
  • In Austria
  • List of Countries
  • For 7 days
  • Water Temperature
  • Satellite Maps
  • Weather Map
  • News
  • Weather Widgets
  • user-avatar
    Login

    Hourly Weather Melesnica

    Today, 21 July, Sunday

    Time Temperature Precipitation Wind Pressure Humidity
    00:00 +16°C° 0.2 mm 0 mps 750 mmHg 83%
    01:00 +18°C° 0.2 mm 1 mps 750 mmHg 84%
    02:00 +16°C° 0.2 mm 1 mps 750 mmHg 85%
    03:00 +16°C° 0 mm 1 mps 750 mmHg 85%
    04:00 +16°C° 0 mm 1 mps 750 mmHg 85%
    05:00 +16°C° 0 mm 1 mps 750 mmHg 86%
    06:00 +19°C° 0 mm 1 mps 750 mmHg 83%
    07:00 +21°C° 0 mm 1 mps 750 mmHg 80%
    08:00 +22°C° 0 mm 1 mps 750 mmHg 78%
    09:00 +24°C° 0 mm 1 mps 751 mmHg 72%
    10:00 +25°C° 0 mm 2 mps 751 mmHg 67%
    11:00 +26°C° 0 mm 2 mps 751 mmHg 61%
    12:00 +27°C° 0.1 mm 2 mps 750 mmHg 58%
    13:00 +28°C° 0.1 mm 2 mps 750 mmHg 55%
    14:00 +28°C° 0.1 mm 1 mps 750 mmHg 51%
    15:00 +28°C° 0 mm 1 mps 750 mmHg 52%
    16:00 +28°C° 0 mm 1 mps 750 mmHg 53%
    17:00 +28°C° 0 mm 1 mps 749 mmHg 54%
    18:00 +27°C° 0.1 mm 1 mps 749 mmHg 60%
    19:00 +25°C° 0.1 mm 1 mps 749 mmHg 67%
    20:00 +23°C° 0.1 mm 1 mps 749 mmHg 73%
    21:00 +22°C° 0.7 mm 1 mps 749 mmHg 77%
    22:00 +21°C° 0.7 mm 1 mps 749 mmHg 82%
    23:00 +21°C° 0.7 mm 1 mps 749 mmHg 86%

    Tomorrow, 22 July, Monday

    Time Temperature Precipitation Wind Pressure Humidity
    00:00 +20°C° 0.8 mm 1 mps 749 mmHg 88%
    01:00 +18°C° 0.8 mm 0 mps 748 mmHg 90%
    02:00 +17°C° 0.8 mm 0 mps 748 mmHg 92%
    03:00 +19°C° 0.9 mm 1 mps 748 mmHg 94%
    04:00 +19°C° 0.9 mm 1 mps 748 mmHg 95%
    05:00 +18°C° 0.9 mm 2 mps 748 mmHg 96%
    06:00 +19°C° 0.2 mm 3 mps 748 mmHg 95%
    07:00 +19°C° 0.2 mm 3 mps 749 mmHg 94%
    08:00 +20°C° 0.2 mm 4 mps 749 mmHg 93%
    09:00 +20°C° 0 mm 4 mps 749 mmHg 91%
    10:00 +20°C° 0 mm 5 mps 749 mmHg 88%
    11:00 +20°C° 0 mm 5 mps 749 mmHg 86%
    12:00 +21°C° 0 mm 5 mps 749 mmHg 80%
    13:00 +22°C° 0 mm 5 mps 749 mmHg 74%
    14:00 +23°C° 0 mm 5 mps 749 mmHg 68%
    15:00 +23°C° 0.1 mm 5 mps 749 mmHg 69%
    16:00 +23°C° 0.1 mm 5 mps 749 mmHg 70%
    17:00 +22°C° 0.1 mm 5 mps 749 mmHg 71%
    18:00 +21°C° 0.1 mm 5 mps 749 mmHg 76%
    19:00 +20°C° 0.1 mm 4 mps 749 mmHg 81%
    20:00 +19°C° 0.1 mm 4 mps 749 mmHg 87%
    21:00 +18°C° 0 mm 4 mps 749 mmHg 88%
    22:00 +17°C° 0 mm 4 mps 749 mmHg 90%
    23:00 +15°C° 0 mm 4 mps 750 mmHg 92%

    Day after tomorrow, 23 July, Tuesday

    Time Temperature Precipitation Wind Pressure Humidity
    00:00 +14°C° 0 mm 4 mps 750 mmHg 93%
    01:00 +14°C° 0 mm 4 mps 750 mmHg 95%
    02:00 +13°C° 0 mm 4 mps 749 mmHg 96%
    03:00 +13°C° 0 mm 4 mps 750 mmHg 94%
    04:00 +13°C° 0 mm 4 mps 750 mmHg 92%
    05:00 +14°C° 0 mm 4 mps 750 mmHg 91%
    06:00 +14°C° 0 mm 4 mps 750 mmHg 90%
    07:00 +15°C° 0 mm 4 mps 749 mmHg 88%
    08:00 +15°C° 0 mm 4 mps 749 mmHg 87%
    09:00 +17°C° 0 mm 4 mps 749 mmHg 85%
    10:00 +18°C° 0 mm 4 mps 749 mmHg 83%
    11:00 +18°C° 0 mm 4 mps 750 mmHg 80%
    12:00 +19°C° 0 mm 4 mps 749 mmHg 77%
    13:00 +20°C° 0 mm 4 mps 749 mmHg 74%
    14:00 +21°C° 0 mm 4 mps 749 mmHg 71%
    15:00 +21°C° 0.2 mm 3 mps 749 mmHg 75%
    16:00 +20°C° 0.2 mm 3 mps 749 mmHg 80%
    17:00 +20°C° 0.2 mm 3 mps 748 mmHg 84%
    18:00 +19°C° 0.1 mm 2 mps 748 mmHg 87%
    19:00 +19°C° 0.1 mm 2 mps 748 mmHg 90%
    20:00 +18°C° 0.1 mm 2 mps 748 mmHg 93%
    21:00 +17°C° 0 mm 2 mps 748 mmHg 94%
    22:00 +17°C° 0 mm 2 mps 749 mmHg 95%
    23:00 +16°C° 0 mm 2 mps 749 mmHg 96%

    24 July, Wednesday

    Time Temperature Precipitation Wind Pressure Humidity
    00:00 +16°C° 0 mm 2 mps 749 mmHg 95%
    01:00 +16°C° 0 mm 2 mps 749 mmHg 95%
    02:00 +16°C° 0 mm 2 mps 749 mmHg 95%
    03:00 +15°C° 0 mm 2 mps 749 mmHg 95%
    04:00 +15°C° 0 mm 2 mps 749 mmHg 96%
    05:00 +15°C° 0 mm 2 mps 749 mmHg 96%
    06:00 +16°C° 0 mm 2 mps 749 mmHg 92%
    07:00 +18°C° 0 mm 3 mps 750 mmHg 88%
    08:00 +20°C° 0 mm 3 mps 750 mmHg 84%
    09:00 +21°C° 0 mm 3 mps 750 mmHg 77%
    10:00 +24°C° 0 mm 3 mps 750 mmHg 69%
    11:00 +26°C° 0 mm 3 mps 750 mmHg 62%
    12:00 +26°C° 0 mm 4 mps 750 mmHg 60%
    13:00 +27°C° 0 mm 4 mps 750 mmHg 58%
    14:00 +27°C° 0 mm 4 mps 750 mmHg 56%
    15:00 +27°C° 0 mm 4 mps 750 mmHg 58%
    16:00 +27°C° 0 mm 4 mps 750 mmHg 60%
    17:00 +26°C° 0 mm 3 mps 750 mmHg 63%
    18:00 +25°C° 0 mm 3 mps 750 mmHg 69%
    19:00 +22°C° 0 mm 3 mps 750 mmHg 76%
    20:00 +20°C° 0 mm 2 mps 750 mmHg 83%
    21:00 +19°C° 0 mm 2 mps 751 mmHg 85%
    22:00 +18°C° 0 mm 2 mps 751 mmHg 87%
    23:00 +17°C° 0 mm 2 mps 751 mmHg 89%

    25 July, Thursday

    Time Temperature Precipitation Wind Pressure Humidity
    00:00 +17°C° 0 mm 2 mps 751 mmHg 89%
    01:00 +17°C° 0 mm 2 mps 751 mmHg 90%
    02:00 +16°C° 0 mm 2 mps 751 mmHg 90%
    03:00 +16°C° 0 mm 2 mps 751 mmHg 90%
    04:00 +16°C° 0 mm 2 mps 751 mmHg 91%
    05:00 +16°C° 0 mm 2 mps 751 mmHg 91%
    06:00 +17°C° 0 mm 2 mps 752 mmHg 86%
    07:00 +19°C° 0 mm 2 mps 752 mmHg 80%
    08:00 +21°C° 0 mm 2 mps 752 mmHg 75%
    09:00 +23°C° 0 mm 2 mps 752 mmHg 69%
    10:00 +25°C° 0 mm 3 mps 752 mmHg 62%
    11:00 +26°C° 0 mm 3 mps 752 mmHg 56%
    12:00 +27°C° 0 mm 3 mps 752 mmHg 55%
    13:00 +27°C° 0 mm 3 mps 752 mmHg 54%
    14:00 +28°C° 0 mm 3 mps 752 mmHg 53%
    15:00 +27°C° 0 mm 3 mps 752 mmHg 55%
    16:00 +27°C° 0 mm 3 mps 752 mmHg 58%
    17:00 +27°C° 0 mm 3 mps 751 mmHg 61%
    18:00 +25°C° 0 mm 2 mps 751 mmHg 68%
    19:00 +24°C° 0 mm 2 mps 751 mmHg 75%
    20:00 +21°C° 0 mm 2 mps 751 mmHg 82%
    21:00 +20°C° 0 mm 2 mps 751 mmHg 84%
    22:00 +19°C° 0 mm 2 mps 752 mmHg 86%
    23:00 +19°C° 0 mm 2 mps 752 mmHg 88%

    26 July, Friday

    Time Temperature Precipitation Wind Pressure Humidity
    00:00 +18°C° 0 mm 2 mps 752 mmHg 89%
    01:00 +18°C° 0 mm 2 mps 752 mmHg 90%
    02:00 +17°C° 0 mm 2 mps 752 mmHg 92%
    03:00 +17°C° 0 mm 2 mps 752 mmHg 93%
    04:00 +17°C° 0 mm 2 mps 752 mmHg 94%
    05:00 +17°C° 0 mm 2 mps 752 mmHg 95%
    06:00 +18°C° 0 mm 2 mps 752 mmHg 89%
    07:00 +20°C° 0 mm 2 mps 752 mmHg 84%
    08:00 +23°C° 0 mm 2 mps 752 mmHg 78%
    09:00 +24°C° 0 mm 2 mps 751 mmHg 71%
    10:00 +25°C° 0 mm 2 mps 751 mmHg 63%
    11:00 +27°C° 0 mm 2 mps 751 mmHg 55%
    12:00 +27°C° 0 mm 2 mps 751 mmHg 54%
    13:00 +28°C° 0 mm 2 mps 751 mmHg 52%
    14:00 +28°C° 0 mm 2 mps 751 mmHg 51%
    15:00 +28°C° 0 mm 2 mps 750 mmHg 53%
    16:00 +28°C° 0 mm 2 mps 750 mmHg 56%
    17:00 +28°C° 0 mm 2 mps 750 mmHg 58%
    18:00 +26°C° 0.1 mm 2 mps 750 mmHg 67%
    19:00 +24°C° 0.1 mm 2 mps 750 mmHg 75%
    20:00 +21°C° 0.1 mm 2 mps 750 mmHg 83%
    21:00 +21°C° 0 mm 2 mps 750 mmHg 86%
    22:00 +20°C° 0 mm 2 mps 750 mmHg 89%
    23:00 +19°C° 0 mm 2 mps 750 mmHg 92%
    Show more